This demonstration page uses our WeatherBlox Daily Observations layout. Learn more.

Left ArrowRight Arrow

Hourly Observations for June 14, 2017

Temp ( °F °C ) Dew Point ( °F °C ) Humidity (%) Winds ( mph kmh ) Pressure ( in mb ) Visibility ( mi km ) Precip ( " mm )
12:03 am 00:03 Mostly Cloudy 56 13.3 54 12.2 93 93 SSW 13 20 29.65 1004 10 16 0.00 0.00
12:18 am 00:18 Cloudy 55 13 54 12 94 94 SSW 10 17 29.65 1004 10 16 0.00 0.00
12:53 am 00:53 Mostly Cloudy 55 12.8 53 11.7 93 93 SSW 15 24 29.66 1004 10 16 0.00 0.03
1:21 am 01:21 Mostly Cloudy 54 12.2 52 11.1 93 93 SSW 22 35 29.68 1005 10 16 0.00 0.00
1:53 am 01:53 Mostly Cloudy 54 12.2 51 10.6 90 90 SSW 20 31 29.66 1004 10 16 0.00 0.00
2:53 am 02:53 Cloudy with Light Rain 56 13.3 55 12.8 97 97 SW 17 28 29.66 1004 10 16 0.00 0.03
3:30 am 03:30 Cloudy 55 13 54 12 94 94 WSW 14 22 29.65 1004 10 16 0.00 0.00
3:53 am 03:53 Cloudy 55 12.8 54 12.2 96 96 WSW 18 30 29.66 1005 10 16 0.01 0.25
4:47 am 04:47 Cloudy 54 12 52 11 94 94 WSW 25 41 29.68 1005 10 16 0.00 0.03
4:48 am 04:48 Cloudy 54 12.2 52 11.1 93 93 WSW 26 43 29.66 1005 10 16 0.00 0.03
5:53 am 05:53 Cloudy 53 11.7 52 11.1 96 96 WSW 20 31 29.70 1006 10 16 0.01 0.25
6:28 am 06:28 Cloudy 54 12 54 12 100 100 WSW 16 26 29.71 1006 10 16 0.00 0.00
6:53 am 06:53 Cloudy 55 12.8 54 12.2 96 96 W 15 24 29.71 1006 10 16 0.00 0.00
7:44 am 07:44 Cloudy with Light Rain 55 13 54 12 94 94 W 14 22 29.68 1005 5 8 0.00 0.00
7:53 am 07:53 Cloudy with Light Rain 55 12.8 54 12.2 96 96 W 18 30 29.73 1007 5 8 0.03 0.76
8:06 am 08:06 Cloudy with Light Rain 55 13 52 11 88 88 WNW 18 30 29.68 1005 10 16 0.00 0.00
8:53 am 08:53 Cloudy with Light Rain 55 12.8 53 11.7 93 93 WNW 18 30 29.75 1007 10 16 0.01 0.25
9:01 am 09:01 Cloudy with Light Rain 55 12.8 53 11.7 93 93 W 15 24 29.74 1007 10 16 0.01 0.25
9:53 am 09:53 Cloudy with Light Rain 55 12.8 51 10.6 87 87 W 18 30 29.76 1008 10 16 0.01 0.25
10:53 am 10:53 Cloudy with Light Rain 54 12.2 52 11.1 93 93 SW 17 28 29.77 1008 10 16 0.03 0.76
11:53 am 11:53 Cloudy 56 13.3 52 11.1 87 87 W 10 17 29.78 1009 10 16 0.03 0.76
12:53 pm 12:53 Cloudy with Light Rain 57 13.9 53 11.7 87 87 W 17 28 29.79 1009 10 16 0.00 0.03
1:53 pm 13:53 Cloudy with Light Rain 61 16.1 50 10 67 67 W 15 24 29.78 1008 10 16 0.00 0.03
2:53 pm 14:53 Cloudy 64 17.8 47 8.3 54 54 W 21 33 29.76 1008 10 16 0.00 0.03
3:53 pm 15:53 Cloudy 66 18.9 47 8.3 50 50 WNW 15 24 29.76 1008 10 16 0.00 0.00
4:53 pm 16:53 Cloudy 67 19.4 50 10 55 55 WNW 16 26 29.76 1008 10 16 0.00 0.00
5:53 pm 17:53 Cloudy 66 18.9 49 9.4 54 54 WNW 15 24 29.78 1008 10 16 0.00 0.00
6:53 pm 18:53 Partly Cloudy 68 20 47 8.3 47 47 WNW 21 33 29.77 1008 10 16 0.00 0.00
7:53 pm 19:53 Sunny 68 20 46 7.8 45 45 WNW 14 22 29.78 1008 10 16 0.00 0.00
8:53 pm 20:53 Sunny 61 16.1 49 9.4 65 65 W 7 11 29.81 1010 10 16 0.00 0.00
9:53 pm 21:53 Clear 53 11.7 49 9.4 86 86 WSW 8 13 29.85 1011 10 16 0.00 0.00
10:53 pm 22:53 Clear 52 11.1 46 7.8 80 80 W 5 7 29.86 1011 10 16 0.00 0.00
11:53 pm 23:53 Clear 50 10 43 6.1 77 77 W 9 15 29.86 1011 10 16 0.00 0.00

Powered by AerisWeather